Location: Cuzcurrita-R�o Tir�n
(42.5415°N, 2.9642°W)
Time: 01:39:38
(UTC+00:00)

Cosmos 968 Rocket - Pass Details

Date: 17 January 2021
Orbit: 740 x 771 km, 74.0° (Epoch: 08 March)

Event Time Altitude Azimuth Distance (km) Brightness Sun altitude
Rises 17:35:20 0° 206° (SSW) 3,167 7.5 -5.6°
Reaches altitude 10° 17:37:41 10° 208° (SSW) 2,246 6.8 -6.0°
Maximum altitude 17:42:45 67° 292° (WNW) 802 3.8 -6.9°
Drops below altitude 10° 17:47:50 10° 15° (NNE) 2,259 5.6 -7.8°
Sets 17:50:13 0° 18° (NNE) 3,188 6.3 -8.2°
